Flag for United Kingdom Weather past 2 weeks in Nottingham, England, United Kingdom

Now
59 °F

Scattered clouds.


Feels Like: 57 °F
Forecast: 44 / 67 °F
Wind: 12 mph from Northwest

Location: East Midlands

Current Time: Aug 20, 2014 at 6:44:33 PM

Latest Report: Aug 20, 2014 at 6:20 PM


Visibility: N/A

Pressure: 30.01 "Hg

Humidity: 55%

Dew point: 43 °F

Location of NottinghamLocation

Historic Weather in Nottingham — Graph

°F

Nottingham temperature yesterday

Maximum temperature yesterday: 63 °F (at 3:50 PM)
Minimum temperature yesterday: 48 °F (at 4:20 AM)
Average temperature yesterday: 54 °F

Past Weeks' High & Low Weather Summary

 TemperatureHumidityPressure
High73 °F (Aug 6, 12:50 PM)100% (Aug 6, 4:20 AM)30.15 "Hg (Aug 6, 4:20 AM)
Low45 °F (Aug 20, 3:50 AM)40% (Aug 11, 4:50 PM)29.27 "Hg (Aug 10, 12:20 PM)
Average59 °F75%29.79 "Hg
* Reported Aug 5 5:20 PM — Aug 20 5:50 PM, Nottingham, Weather by CustomWeather, © 2014

Note: Actual official high and low records may vary slightly from our data, if they occured in-between our weather recording intervals... More about our weather records

Advertising

Nottingham weather history for previous 24 hours

 ConditionsComfort  
Time TempWeatherWind HumidityBarometerVisibility
5:50 PM
Aug 20
63 °FScattered clouds.9 mph52%30.01 "HgN/A
5:20 PM61 °FScattered showers. Scattered clouds.12 mph52%30.01 "HgN/A
4:50 PM59 °FScattered showers. Scattered clouds.8 mph59%30.01 "HgN/A
4:20 PM59 °FScattered clouds.14 mph59%30.01 "HgN/A
3:50 PM61 °FScattered clouds.12 mph55%30.01 "HgN/A
3:20 PM63 °FScattered clouds.13 mph56%30.01 "HgN/A
2:50 PM61 °FScattered clouds.14 mph59%30.01 "HgN/A
2:20 PM61 °FPassing clouds.13 mph59%30.01 "HgN/A
1:50 PM59 °FPassing clouds.10 mph59%30.04 "HgN/A
1:20 PM61 °FPassing clouds.13 mph59%30.04 "HgN/A
12:50 PM59 °FScattered clouds.8 mph59%30.04 "HgN/A
12:20 PM59 °FScattered clouds.9 mph59%30.04 "HgN/A
11:50 AM57 °FScattered clouds.10 mph63%30.04 "HgN/A
11:20 AM57 °FScattered clouds.9 mph67%30.04 "HgN/A
10:50 AM57 °FScattered clouds.12 mph67%30.01 "HgN/A
10:20 AM55 °FPassing clouds.9 mph72%30.01 "HgN/A
9:50 AM55 °FSunny.12 mph72%30.01 "Hg10 mi
9:20 AM55 °FSunny.16 mph77%30.01 "Hg10 mi
8:50 AM54 °FSunny.15 mph77%30.01 "Hg10 mi
8:20 AM52 °FSunny.12 mph82%30.01 "Hg10 mi
7:50 AM50 °FSunny.13 mph88%30.01 "Hg10 mi
7:20 AM48 °FSunny.10 mph87%30.01 "Hg10 mi
6:50 AM45 °FClear.9 mph93%30.01 "Hg10 mi
6:20 AM45 °FPassing clouds.9 mph93%30.01 "HgN/A
5:50 AM45 °FClear.10 mph93%30.01 "Hg10 mi
5:20 AM46 °FClear.10 mph87%30.01 "Hg10 mi
4:50 AM46 °FClear.10 mph87%30.01 "Hg10 mi
4:20 AM46 °FClear.12 mph87%30.01 "Hg10 mi
3:50 AM45 °FClear.10 mph93%30.01 "Hg10 mi
3:20 AM46 °FClear.9 mph87%30.01 "Hg10 mi
2:50 AM46 °FClear.8 mph93%30.01 "Hg10 mi
2:20 AM48 °FClear.8 mph82%30.01 "Hg10 mi
1:50 AM46 °FClear.10 mph93%30.01 "Hg10 mi
1:20 AM48 °FClear.7 mph87%30.01 "Hg10 mi
12:50 AM48 °FClear.7 mph87%30.01 "Hg10 mi
12:20 AM48 °FClear.9 mph87%30.01 "Hg10 mi
11:50 PM
Aug 19
48 °FClear.9 mph82%30.01 "Hg10 mi
11:20 PM48 °FClear.10 mph82%30.01 "Hg10 mi
10:50 PM48 °FClear.10 mph82%30.01 "Hg10 mi
10:20 PM50 °FClear.12 mph76%30.01 "Hg10 mi
9:50 PM50 °FClear.10 mph76%29.98 "Hg10 mi
9:20 PM50 °FSunny.9 mph71%29.98 "Hg10 mi
8:50 PM52 °FSunny.8 mph67%29.98 "Hg10 mi
8:20 PM55 °FPassing clouds.8 mph59%29.98 "HgN/A
7:50 PM57 °FPassing clouds.9 mph59%29.95 "HgN/A
7:20 PM59 °FPassing clouds.12 mph51%29.95 "HgN/A
6:50 PM61 °FScattered clouds.12 mph48%29.95 "HgN/A
6:20 PM61 °FScattered clouds.12 mph52%29.95 "HgN/A
Weather by CustomWeather, © 2014

See weather overviewHow to use our weather pages